Hourly Data Report for March 26, 2018

MIRAMICHI RCS
NEW BRUNSWICK

47°00'34.000" N
65°27'54.000" W
33.00 m
8100989
71744
ACQ

Download Data

Hourly Data (March 2018)
Hourly Data Report for March 26, 2018
TIME
LST
Temp Definition
°C
Dew Point Definition
°C
Rel Hum Definition
%
Precip. Amount Definition
mm

Wind Dir Definition
10's deg

Wind Spd Definition
km/h
Visibility Definition
km
Stn Press Definition
kPa
Hmdx Definition


Wind Chill Definition


Weather Definition


00:00 -11.8 -15.0 77 0.0 29 8   103.42   -17 LegendNANA
01:00 -14.0 -15.4 89 0.0 29 4   103.43   -17 LegendNANA
02:00 -13.5 -15.6 84 0.0 26 5   103.47   -17 LegendNANA
03:00 -14.9 -16.9 85 0.0 25 6   103.45   -19 LegendNANA
04:00 -15.5 -18.0 81 0.0 26 6   103.48   -20 LegendNANA
05:00 -15.3 -17.5 84 0.0 25 6   103.52   -20 LegendNANA
06:00 -15.7 -17.9 83 0.0 26 6   103.57   -20 LegendNANA
07:00 -15.0 -17.4 82 0.0 25 4   103.65   -18 LegendNANA
08:00 -10.3 -14.8 69 0.0 25 3   103.74   -12 LegendNANA
09:00 -3.8 -14.2 44 0.0 36 2   103.80   -5 LegendNANA
10:00 0.2 -15.9 29 0.0 2 4   103.83     LegendNANA
11:00 1.4 -16.0 26 0.0 17 4   103.81     LegendNANA
12:00 3.6 -16.8 21 0.0 9 3   103.78     LegendNANA
13:00 4.4 -12.9 27 0.0 10 3   103.76     LegendNANA
14:00 3.1 -12.3 31 0.0 12 8   103.72     LegendNANA
15:00 3.2 -7.7 45 0.0 9 9   103.66     LegendNANA
16:00 2.7 -9.0 42 0.0 9 11   103.61     LegendNANA
17:00 2.1 -8.6 45 0.0 8 13   103.59     LegendNANA
18:00 0.8 -9.7 45 0.0 5 12   103.61     LegendNANA
19:00 -3.1 -8.6 66 0.0 5 5   103.62   -5 LegendNANA
20:00 -6.6 -10.6 73 0.0 6 6   103.64   -10 LegendNANA
21:00 -5.4 -9.2 74 0.0 3 6   103.65   -8 LegendNANA
22:00 -8.3 -10.1 87 0.0 4 3   103.64   -10 LegendNANA
23:00 -10.1 -11.4 90 0.0   0   103.66     LegendNANA

Notes on Data Quality.

Legend

  • E = Estimated
  • M = Missing
  • NA = Not Available*
  • [empty] = Indicates an unobserved value
Date modified: